TimeCST,TemperatureF,Dew PointF,Humidity,Sea Level PressureIn,VisibilityMPH,Wind Direction,Wind SpeedMPH,Gust SpeedMPH,PrecipitationIn,Events,Conditions,WindDirDegrees,DateUTC
12:15 AM,32.0,23.7,71,30.10,10.0,South,10.4,-,N/A,,Clear,190,2013-01-07 06:15:00
12:35 AM,33.4,24.1,69,30.09,10.0,South,13.8,19.6,N/A,,Clear,190,2013-01-07 06:35:00
12:55 AM,35.1,24.8,66,30.08,10.0,South,16.1,21.9,N/A,,Clear,190,2013-01-07 06:55:00
1:15 AM,35.2,24.8,66,30.08,10.0,South,13.8,20.7,N/A,,Clear,190,2013-01-07 07:15:00
1:35 AM,36.5,25.2,64,30.07,10.0,South,19.6,27.6,N/A,,Clear,190,2013-01-07 07:35:00
1:55 AM,34.7,24.8,67,30.06,10.0,SSW,15.0,19.6,N/A,,Clear,200,2013-01-07 07:55:00
2:35 AM,34.3,24.8,68,30.07,10.0,SSW,12.7,18.4,N/A,,Clear,200,2013-01-07 08:35:00
2:55 AM,34.2,24.8,69,30.06,10.0,South,16.1,20.7,N/A,,Clear,190,2013-01-07 08:55:00
3:15 AM,34.0,24.8,69,30.05,10.0,South,16.1,23.0,N/A,,Clear,190,2013-01-07 09:15:00
3:35 AM,34.0,25.2,70,30.05,10.0,South,18.4,24.2,N/A,,Clear,190,2013-01-07 09:35:00
3:55 AM,33.8,24.8,70,30.03,10.0,South,17.3,25.3,N/A,,Clear,190,2013-01-07 09:55:00
4:15 AM,33.4,24.8,71,30.03,10.0,South,19.6,26.5,N/A,,Clear,190,2013-01-07 10:15:00
4:35 AM,33.3,24.8,71,30.02,10.0,South,20.7,28.8,N/A,,Clear,190,2013-01-07 10:35:00
4:55 AM,33.1,24.8,72,30.01,10.0,SSW,18.4,26.5,N/A,,Clear,200,2013-01-07 10:55:00
5:15 AM,33.3,24.8,71,30.01,10.0,SSW,19.6,29.9,N/A,,Clear,200,2013-01-07 11:15:00
5:35 AM,33.3,24.8,71,30.01,10.0,SSW,20.7,28.8,N/A,,Clear,200,2013-01-07 11:35:00
5:55 AM,33.8,25.0,70,30.00,10.0,SSW,18.4,26.5,N/A,,Clear,200,2013-01-07 11:55:00
6:15 AM,34.2,25.3,70,30.00,10.0,SSW,18.4,25.3,N/A,,Clear,200,2013-01-07 12:15:00
6:35 AM,33.8,25.3,71,29.99,10.0,South,20.7,28.8,N/A,,Clear,190,2013-01-07 12:35:00
6:55 AM,33.3,25.2,72,29.98,10.0,South,25.3,29.9,N/A,,Clear,190,2013-01-07 12:55:00
7:15 AM,33.3,25.2,72,29.98,10.0,South,21.9,31.1,N/A,,Clear,190,2013-01-07 13:15:00
7:35 AM,33.4,25.2,72,29.97,10.0,South,20.7,26.5,N/A,,Clear,190,2013-01-07 13:35:00
7:55 AM,34.3,25.5,70,29.99,10.0,SSW,15.0,29.9,N/A,,Clear,210,2013-01-07 13:55:00
8:15 AM,33.8,25.5,72,30.00,10.0,SSW,16.1,25.3,N/A,,Clear,200,2013-01-07 14:15:00
8:35 AM,33.8,25.7,72,30.01,10.0,SSW,15.0,20.7,N/A,,Clear,210,2013-01-07 14:35:00
9:15 AM,34.3,26.2,72,30.02,10.0,SSW,11.5,17.3,N/A,,Clear,200,2013-01-07 15:15:00
9:35 AM,34.9,26.4,71,30.02,10.0,SSW,12.7,17.3,N/A,,Clear,210,2013-01-07 15:35:00
9:55 AM,35.6,27.1,71,30.02,10.0,SSW,11.5,17.3,N/A,,Clear,210,2013-01-07 15:55:00
10:15 AM,36.1,27.5,71,30.03,10.0,SW,11.5,19.6,N/A,,Clear,220,2013-01-07 16:15:00
10:35 AM,36.5,27.7,70,30.04,10.0,SW,11.5,18.4,N/A,,Clear,220,2013-01-07 16:35:00
10:55 AM,37.4,28.2,69,30.03,10.0,SW,11.5,19.6,N/A,,Clear,220,2013-01-07 16:55:00
11:35 AM,38.3,28.2,67,30.02,10.0,SW,10.4,21.9,N/A,,Clear,220,2013-01-07 17:35:00
11:55 AM,37.6,28.9,71,30.01,10.0,SW,11.5,18.4,N/A,,Clear,220,2013-01-07 17:55:00
12:35 PM,38.7,29.1,69,30.00,10.0,SW,9.2,-,N/A,,Clear,220,2013-01-07 18:35:00
1:15 PM,39.4,29.5,68,29.99,10.0,SW,12.7,16.1,N/A,,Clear,230,2013-01-07 19:15:00
1:35 PM,39.4,30.0,69,29.98,10.0,SW,8.1,-,N/A,,Clear,220,2013-01-07 19:35:00
1:55 PM,39.2,30.0,70,29.98,10.0,SW,8.1,-,N/A,,Clear,230,2013-01-07 19:55:00
2:15 PM,39.4,30.0,69,29.98,10.0,WSW,8.1,-,N/A,,Clear,240,2013-01-07 20:15:00
2:35 PM,39.7,30.4,69,29.98,10.0,SW,6.9,-,N/A,,Clear,230,2013-01-07 20:35:00
2:55 PM,39.7,30.2,69,29.98,10.0,SW,6.9,-,N/A,,Clear,230,2013-01-07 20:55:00
3:15 PM,39.6,30.7,71,29.97,10.0,SW,6.9,-,N/A,,Clear,220,2013-01-07 21:15:00
3:35 PM,40.5,30.6,68,29.97,10.0,SSW,5.8,-,N/A,,Clear,210,2013-01-07 21:35:00
3:55 PM,40.3,30.9,69,29.97,10.0,SW,3.5,-,N/A,,Clear,230,2013-01-07 21:55:00
4:15 PM,39.9,30.7,70,29.97,10.0,SW,5.8,-,N/A,,Clear,230,2013-01-07 22:15:00
4:35 PM,39.2,30.7,72,29.97,10.0,Calm,Calm,-,N/A,,Clear,0,2013-01-07 22:35:00
5:15 PM,36.9,30.6,78,29.96,10.0,SSW,3.5,-,N/A,,Clear,200,2013-01-07 23:15:00
5:35 PM,35.8,30.2,80,29.96,10.0,SW,3.5,-,N/A,,Clear,220,2013-01-07 23:35:00
5:55 PM,33.8,29.5,84,29.96,10.0,Calm,Calm,-,N/A,,Clear,0,2013-01-07 23:55:00
6:15 PM,32.2,29.1,88,29.95,10.0,South,3.5,-,N/A,,Clear,190,2013-01-08 00:15:00
6:35 PM,31.1,27.9,88,29.97,10.0,Calm,Calm,-,N/A,,Clear,0,2013-01-08 00:35:00
6:55 PM,30.9,28.9,92,29.97,10.0,Calm,Calm,-,N/A,,Clear,0,2013-01-08 00:55:00
7:15 PM,30.4,28.2,92,29.97,10.0,Calm,Calm,-,N/A,,Clear,0,2013-01-08 01:15:00
7:35 PM,29.7,27.3,91,29.97,10.0,Calm,Calm,-,N/A,,Clear,0,2013-01-08 01:35:00
7:55 PM,29.1,27.1,92,29.97,10.0,Calm,Calm,-,N/A,,Clear,0,2013-01-08 01:55:00
8:15 PM,29.1,27.0,92,29.97,10.0,Calm,Calm,-,N/A,,Clear,0,2013-01-08 02:15:00
8:35 PM,25.3,23.7,94,29.96,10.0,Calm,Calm,-,N/A,,Clear,0,2013-01-08 02:35:00
8:55 PM,27.3,25.3,92,29.95,10.0,Calm,Calm,-,N/A,,Clear,0,2013-01-08 02:55:00
9:15 PM,24.6,23.0,94,29.96,10.0,Calm,Calm,-,N/A,,Clear,0,2013-01-08 03:15:00
9:35 PM,24.6,23.4,95,29.94,10.0,Calm,Calm,-,N/A,,Clear,0,2013-01-08 03:35:00
9:55 PM,23.5,22.3,95,29.94,10.0,Calm,Calm,-,N/A,,Clear,0,2013-01-08 03:55:00
10:15 PM,22.8,21.7,96,29.93,7.0,Calm,Calm,-,N/A,,Clear,0,2013-01-08 04:15:00
10:35 PM,21.9,20.7,95,29.94,7.0,Calm,Calm,-,N/A,,Clear,0,2013-01-08 04:35:00
10:55 PM,22.6,21.7,96,29.93,7.0,Calm,Calm,-,N/A,,Clear,0,2013-01-08 04:55:00
11:15 PM,22.6,21.7,96,29.93,7.0,Calm,Calm,-,N/A,,Clear,0,2013-01-08 05:15:00
11:35 PM,22.1,21.2,96,29.93,7.0,Calm,Calm,-,N/A,,Clear,0,2013-01-08 05:35:00
11:55 PM,21.2,20.1,96,29.93,7.0,Calm,Calm,-,N/A,,Clear,0,2013-01-08 05:55:00